Regional Weather Roundup
Issued by NWS

Home | Current Version | Previous Version | Text Only | Print | Product List | Glossary On
Versions: 1 2 3 4 5 6 7 8 9 10 11 12 13 14 15 16 17 18 19 20 21 22 23 24 25 26 27 28 29 30 31 32 33 34 35 36 37 38 39 40 41 42 43 44 45 46 47 48 49 50
324
ASUS43 KIND 011909
RWRIN

WEATHER ROUNDUP FOR INDIANA
NATIONAL WEATHER SERVICE INDIANAPOLIS IN
300 PM EDT SUN MAY 01 2016

NOTE: "FAIR" INDICATES FEW OR NO CLOUDS BELOW 12,000 FEET WITH NO
SIGNIFICANT WEATHER AND/OR OBSTRUCTIONS TO VISIBILITY.

* - STATION DOES NOT REPORT WEATHER SUCH AS PRECIPITATION OR FOG.

+ - STATION NOT QUALITY CONTROLLED BY THE NATIONAL WEATHER SERVICE.
    USE DATA WITH CAUTION...ESPECIALLY DEWPOINT AND RELATIVE
    HUMIDITY OBSERVATIONS.

INZ001>003-010>013-019-020-012000-
NORTHWEST INDIANA

CITY           SKY/WX    TMP DP  RH WIND       PRES   REMARKS
GARY /AIRPORT/ CLOUDY    48  48 100 N10       30.00R FOG
KNOX *+        CLOUDY    54  46  76 E3        29.97S
LA PORTE +     CLOUDY    57  52  83 E3        29.97S
MICHIGAN CITY+ CLOUDY    52  52 100 N7        29.98S
MONTICELLO +   CLOUDY    58  53  84 CALM      29.96R
RENSSELAER +   CLOUDY    55  54  94 NE3       29.96S
VALPARAISO     CLOUDY    55  50  83 NW6       29.98R

$$

LMZ046-743>745-012000-
SOUTHERN LAKE MICHIGAN

STATION/POSITION TIME  TEMP    WIND        PRES    WAVE
                       AIR SEA DIR/SP/G            HT
                 (UTC) (F)     (DEG/KT/KT) (MB)    (FT)
BURNS HARBOR     1815   46      20/ 10/ 12 1015.9S
MICHIGAN CITY    1800   45     360/ 11/ 12   N/A

$$

INZ004-005-014>016-021>024-012000-
NORTH CENTRAL INDIANA

CITY           SKY/WX    TMP DP  RH WIND       PRES   REMARKS
ELKHART        CLOUDY    54  54 100 MISG      29.98R
GOSHEN         CLOUDY    56  51  84 N7        29.97S
LOGANSPORT +   CLOUDY    59  55  88 NW3       29.96S
PERU/GRISSOM   PTSUNNY   64  61  91 NW7       29.93S
ROCHESTER +    CLOUDY    59  55  88 CALM      29.96S
SOUTH BEND     CLOUDY    55  49  80 N7        29.98S
WARSAW +       CLOUDY    55  52  88 NE3       29.96S

$$

INZ006>009-017-018-025>027-012000-
NORTHEAST INDIANA

CITY           SKY/WX    TMP DP  RH WIND       PRES   REMARKS
ANGOLA *+      CLOUDY    54  43  66 NE5       29.96F
AUBURN +       CLOUDY    55  52  88 CALM      29.97S
FORT WAYNE     CLOUDY    61  56  83 N5        29.96S
HUNTINGTON +   CLOUDY   N/A N/A N/A CALM      29.95S FOG

$$

INZ028-029-035-036-043>045-051>053-012000-
WEST CENTRAL INDIANA

CITY           SKY/WX    TMP DP  RH WIND       PRES   REMARKS
CRAWFORDSVL +  CLOUDY    67  59  74 W5        29.94S
GREENCASTLE +  PTSUNNY   72  63  73 NW3       29.94S
LAFAYETTE      CLOUDY    62  57  83 NE6       29.94F
TERRE HAUTE    PTSUNNY   71  56  58 N6        29.93S

$$

INZ030>032-037>040-046>048-054>057-064-065-012000-
CENTRAL INDIANA

CITY           SKY/WX    TMP DP  RH WIND       PRES   REMARKS
CP ATTERBURY + PTSUNNY   73  55  53 NE3       29.93S
COLUMBUS       MOSUNNY   75  59  57 NE6       29.92F
FISHERS *+     PTSUNNY   72  59  64 NW7       29.93S
FRANKFORT +      N/A     68  51  55 CALM      29.96S
GREENWOOD *+   PTSUNNY   75  57  53 SW7       29.94S
INDIANAPOLIS   MOSUNNY   75  56  51 W6        29.92S
-EAGLE CREEK   MOSUNNY   73  56  54 VRB3      29.92F
KOKOMO *+      MOSUNNY   66  57  72 CALM      29.93S
MARION +       PTSUNNY   68  59  71 W6        29.94S
SHELBYVILLE    PTSUNNY   75  56  51 W5        29.92S
ZIONSVILLE +   PTSUNNY   70  57  63 SW7       29.94S

$$

INZ033-034-041-042-049-050-058-059-012000-
EAST CENTRAL INDIANA

CITY           SKY/WX    TMP DP  RH WIND       PRES   REMARKS
MUNCIE         MOSUNNY   73  54  51 S7        29.93S

$$

INZ060-061-067>069-081>083-085>088-012000-
SOUTHWEST INDIANA

CITY           SKY/WX    TMP DP  RH WIND       PRES   REMARKS
EVANSVILLE     TSTM      73  64  73 W9        29.91F
HUNTINGBURG *+ MOSUNNY   79  64  61 SW5       29.90F
WASHINGTON +   MOSUNNY   77  62  58 S3        29.91F

$$

INZ062-063-066-070>080-084-089>092-012000-
SOUTH CENTRAL AND SOUTHEAST INDIANA

CITY           SKY/WX    TMP DP  RH WIND       PRES   REMARKS
BLOOMINGTON    PTSUNNY   77  56  48 NW8       29.92S
MADISON *+     MOSUNNY   77  57  50 CALM      29.93F
NORTH VERNON + PTSUNNY   75  64  69 CALM      29.92F
SEYMOUR +      SUNNY     79  59  50 CALM      29.91F

$$





USA.gov is the U.S. government's official web portal to all federal, state and local government web resources and services.